Weather History for KGPH - July, 2013

Change the Weather History Date:

Wednesday, July 24, 2013

  Actual Average (KMCI) Record (KMCI)
Temperature  
Mean Temperature 72 °F 79 °F  
Max Temperature 84 °F 89 °F 110 °F (1934)
Min Temperature 60 °F 69 °F 57 °F (2004)
Degree Days  
Heating Degree Days 0 0  
Month to date heating degree days 0  
Since 1 June heating degree days 9  
Since 1 July heating degree days 0  
Cooling Degree Days 7 14  
Month to date cooling degree days 321  
Year to date cooling degree days 703  
Since 1 June cooling degree days 587  
Growing Degree Days 22 (Base 50)    
Moisture  
Dew Point 58 °F    
Average Humidity 62    
Maximum Humidity 100    
Minimum Humidity 33    
Precipitation  
Precipitation 0.00 in 0.13 in 2.35 in (1900)
Month to date precipitation 3.60  
Year to date precipitation 22.66  
Snow  
Snow 0.00 in 0.00 in 0.00 in ()
Month to date snowfall 0.0  
Since 1 June snowfall 0.0  
Since 1 July snowfall 0.0  
Snow Depth -    
Sea Level Pressure  
Sea Level Pressure 30.01 in    
Wind  
Wind Speed 4 mph (NNE)    
Max Wind Speed 12 mph    
Max Gust Speed 16 mph    
Visibility 10 miles    
Events      
T = Trace of Precipitation, MM = Missing Value Source: NWS Daily Summary

Daily Weather History Graph

Daily Weather History Graph

Search for Another Location

Airport or City:

Trip Planner

Search our weather history database for the weather conditions in past years. The results will help you decide how hot, cold, wet, or windy it might be!

Date:

Astronomy

Jul. 24, 2013 Rise Set
Actual Time 6:10 AM CDT 8:36 PM CDT
Civil Twilight 5:39 AM CDT 9:07 PM CDT
Nautical Twilight 5:01 AM CDT 9:44 PM CDT
Astronomical Twilight 4:19 AM CDT 10:26 PM CDT
Moon 9:44 PM CDT (7/24) 8:30 AM CDT (7/24)
Length of Visible Light 15h 27m
Length of Day
14h 26m
Waning Gibbous, 94% of the Moon is Illuminated
Jul 24
Waning Gibbous
Jul 29
Last Quarter
Aug 6
New
Aug 14
First Quarter
Aug 20
Full

Hourly Weather History & Observations

Time (CDT) Temp. Heat Index Dew Point Humidity Pressure Visibility Wind Dir Wind Speed Gust Speed Precip Events Conditions
12:15 AM 69.8 °F - 59.0 °F 68% 29.95 in 10.0 mi NE 8.1 mph - N/A   Clear
12:35 AM 69.8 °F - 59.0 °F 68% 29.97 in 10.0 mi ENE 4.6 mph - N/A   Clear
12:55 AM 69.8 °F - 59.0 °F 68% 29.97 in 10.0 mi Calm Calm - N/A   Clear
1:15 AM 68.0 °F - 59.0 °F 73% 29.96 in 10.0 mi NE 3.5 mph - N/A   Clear
1:35 AM 68.0 °F - 59.0 °F 73% 29.96 in 10.0 mi NE 4.6 mph - N/A   Clear
1:55 AM 68.0 °F - 59.0 °F 73% 29.96 in 10.0 mi NE 5.8 mph - N/A   Clear
2:15 AM 68.0 °F - 59.0 °F 73% 29.97 in 10.0 mi ENE 3.5 mph - N/A   Scattered Clouds
2:35 AM 68.0 °F - 59.0 °F 73% 29.99 in 10.0 mi NE 3.5 mph - N/A   Mostly Cloudy
2:55 AM 68.0 °F - 59.0 °F 73% 29.99 in 10.0 mi ENE 4.6 mph - N/A   Overcast
3:15 AM 68.0 °F - 59.0 °F 73% 29.99 in 10.0 mi Calm Calm - N/A   Overcast
3:35 AM 66.2 °F - 59.0 °F 78% 29.99 in 10.0 mi Calm Calm - N/A   Mostly Cloudy
3:55 AM 64.4 °F - 59.0 °F 83% 29.99 in 10.0 mi Calm Calm - N/A   Clear
4:15 AM 64.4 °F - 59.0 °F 83% 30.00 in 10.0 mi Calm Calm - N/A   Clear
4:35 AM 64.4 °F - 59.0 °F 83% 30.01 in 10.0 mi Calm Calm - N/A   Clear
4:55 AM 62.6 °F - 59.0 °F 88% 30.00 in 10.0 mi NNW 3.5 mph - N/A   Clear
5:15 AM 60.8 °F - 59.0 °F 94% 30.01 in 10.0 mi Calm Calm - N/A   Clear
5:35 AM 60.8 °F - 59.0 °F 94% 30.00 in 10.0 mi Calm Calm - N/A   Clear
5:55 AM 60.8 °F - 59.0 °F 94% 30.02 in 10.0 mi Calm Calm - N/A   Clear
6:15 AM 60.8 °F - 59.0 °F 94% 30.02 in 10.0 mi Calm Calm - N/A   Clear
6:35 AM 60.8 °F - 60.8 °F 100% 30.02 in 10.0 mi Calm Calm - N/A   Clear
6:55 AM 60.8 °F - 60.8 °F 100% 30.02 in 10.0 mi Calm Calm - N/A   Clear
7:15 AM 60.8 °F - 60.8 °F 100% 30.02 in 10.0 mi Calm Calm - N/A   Clear
7:35 AM 62.6 °F - 60.8 °F 94% 30.02 in 10.0 mi North 3.5 mph - N/A   Clear
7:55 AM 64.4 °F - 60.8 °F 88% 30.02 in 10.0 mi Calm Calm - N/A   Clear
8:15 AM 68.0 °F - 60.8 °F 78% 30.02 in 10.0 mi North 4.6 mph - N/A   Clear
8:35 AM 68.0 °F - 60.8 °F 78% 30.02 in 10.0 mi NE 3.5 mph - N/A   Clear
8:55 AM 69.8 °F - 60.8 °F 73% 30.03 in 10.0 mi NNE 3.5 mph - N/A   Clear
9:15 AM 71.6 °F - 59.0 °F 64% 30.03 in 10.0 mi NE 4.6 mph - N/A   Clear
9:35 AM 71.6 °F - 59.0 °F 64% 30.03 in 10.0 mi NE 6.9 mph - N/A   Clear
9:55 AM 73.4 °F - 59.0 °F 61% 30.04 in 10.0 mi North 4.6 mph - N/A   Clear
10:15 AM 73.4 °F - 59.0 °F 61% 30.04 in 10.0 mi North 3.5 mph - N/A   Unknown
10:35 AM 73.4 °F - 59.0 °F 61% 30.05 in 10.0 mi NNE 3.5 mph - N/A   Unknown
10:55 AM 77.0 °F - 57.2 °F 50% 30.05 in 10.0 mi NNE 6.9 mph - N/A   Clear
11:15 AM 77.0 °F - 57.2 °F 50% 30.04 in 10.0 mi North 5.8 mph - N/A   Clear
11:35 AM 77.0 °F - 57.2 °F 50% 30.05 in 10.0 mi North 5.8 mph - N/A   Clear
11:55 AM 78.8 °F - 55.4 °F 44% 30.05 in 10.0 mi North 5.8 mph - N/A   Clear
12:15 PM 78.8 °F - 55.4 °F 44% 30.05 in 10.0 mi NNW 9.2 mph - N/A   Clear
12:35 PM 78.8 °F - 55.4 °F 44% 30.04 in 10.0 mi NE 8.1 mph - N/A   Clear
12:55 PM 80.6 °F 80.5 °F 55.4 °F 42% 30.04 in 10.0 mi NNE 4.6 mph - N/A   Clear
1:15 PM 80.6 °F 80.5 °F 55.4 °F 42% 30.04 in 10.0 mi North 8.1 mph - N/A   Clear
1:35 PM 80.6 °F 80.3 °F 53.6 °F 39% 30.04 in 10.0 mi North 5.8 mph - N/A   Clear
1:55 PM 80.6 °F 80.3 °F 53.6 °F 39% 30.03 in 10.0 mi NNW 9.2 mph - N/A   Clear
2:15 PM 82.4 °F 81.4 °F 53.6 °F 37% 30.03 in 10.0 mi North 8.1 mph - N/A   Clear
2:35 PM 82.4 °F 81.4 °F 53.6 °F 37% 30.02 in 10.0 mi NNW 11.5 mph - N/A   Clear
2:55 PM 82.4 °F 81.4 °F 53.6 °F 37% 30.02 in 10.0 mi North 5.8 mph 16.1 mph N/A   Clear
3:15 PM 84.2 °F - 51.8 °F 33% 30.02 in 10.0 mi NW 6.9 mph 16.1 mph N/A   Clear
3:35 PM 84.2 °F 82.8 °F 53.6 °F 35% 30.02 in 10.0 mi NW 8.1 mph - N/A   Clear
3:55 PM 84.2 °F 82.8 °F 53.6 °F 35% 30.02 in 10.0 mi NW 11.5 mph - N/A   Clear
4:15 PM 84.2 °F - 51.8 °F 33% 30.01 in 10.0 mi North 9.2 mph - N/A   Clear
4:35 PM 84.2 °F 82.8 °F 53.6 °F 35% 30.01 in 10.0 mi North 8.1 mph - N/A   Clear
4:55 PM 84.2 °F 82.8 °F 53.6 °F 35% 30.01 in 10.0 mi NNW 4.6 mph - N/A   Clear
5:15 PM 84.2 °F 82.8 °F 53.6 °F 35% 30.00 in 10.0 mi North 6.9 mph - N/A   Clear
5:35 PM 84.2 °F 82.8 °F 53.6 °F 35% 30.00 in 10.0 mi North 8.1 mph - N/A   Clear
5:55 PM 84.2 °F 82.8 °F 53.6 °F 35% 30.00 in 10.0 mi NNW 8.1 mph - N/A   Clear
6:15 PM 84.2 °F 82.8 °F 53.6 °F 35% 30.00 in 10.0 mi North 8.1 mph - N/A   Clear
6:35 PM 82.4 °F 81.4 °F 53.6 °F 37% 30.00 in 10.0 mi North 6.9 mph - N/A   Clear
6:55 PM 82.4 °F 81.7 °F 55.4 °F 39% 30.00 in 10.0 mi NNE 5.8 mph - N/A   Clear
7:15 PM 82.4 °F 81.4 °F 53.6 °F 37% 30.00 in 10.0 mi North 4.6 mph - N/A   Clear
7:35 PM 80.6 °F 80.5 °F 55.4 °F 42% 30.00 in 10.0 mi NNE 4.6 mph - N/A   Clear
7:55 PM 80.6 °F 80.5 °F 55.4 °F 42% 30.00 in 10.0 mi NE 5.8 mph - N/A   Clear
8:15 PM 78.8 °F - 57.2 °F 47% 30.00 in 10.0 mi NE 3.5 mph - N/A   Clear
8:35 PM 77.0 °F - 59.0 °F 54% 30.01 in 10.0 mi Calm Calm - N/A   Clear
8:55 PM 73.4 °F - 60.8 °F 65% 30.02 in 10.0 mi Calm Calm - N/A   Clear
9:15 PM 71.6 °F - 60.8 °F 69% 30.02 in 10.0 mi Calm Calm - N/A   Clear
9:35 PM 71.6 °F - 62.6 °F 73% 30.02 in 10.0 mi Calm Calm - N/A   Clear
9:55 PM 71.6 °F - 60.8 °F 69% 30.02 in 10.0 mi Calm Calm - N/A   Clear
10:15 PM 71.6 °F - 59.0 °F 64% 30.03 in 10.0 mi NE 3.5 mph - N/A   Clear
10:35 PM 71.6 °F - 59.0 °F 64% 30.04 in 10.0 mi Calm Calm - N/A   Clear
10:55 PM 69.8 °F - 60.8 °F 73% 30.04 in 10.0 mi Calm Calm - N/A   Clear
11:15 PM 68.0 °F - 60.8 °F 78% 30.05 in 10.0 mi Calm Calm - N/A   Clear
11:35 PM 68.0 °F - 60.8 °F 78% 30.05 in 10.0 mi Calm Calm - N/A   Clear
11:55 PM 66.2 °F - 60.8 °F 83% 30.06 in 10.0 mi Calm Calm - N/A   Unknown